Time,TemperatureF,DewpointF,PressureIn,WindDirection,WindDirectionDegrees,WindSpeedMPH,WindSpeedGustMPH,Humidity,HourlyPrecipIn,Conditions,Clouds,dailyrainin,SoftwareType,DateUTC
2013-09-26 00:01:00,67.7,55.1,29.84,SSE,158,0.0,0.0,64,0.00,OVC,OVC,0.00,WeatherDisplay:10.37,2013-09-26 05:01:00,
2013-09-26 00:06:00,67.6,55.0,29.85,SSE,158,0.0,0.0,64,0.00,OVC,OVC,0.00,WeatherDisplay:10.37,2013-09-26 05:06:00,
2013-09-26 00:11:00,67.5,54.9,29.84,SSE,158,0.0,0.0,64,0.00,OVC,OVC,0.00,WeatherDisplay:10.37,2013-09-26 05:11:00,
2013-09-26 00:16:00,67.4,54.8,29.84,SSE,158,0.0,0.0,64,0.00,OVC,OVC,0.00,WeatherDisplay:10.37,2013-09-26 05:16:00,
2013-09-26 00:21:00,67.3,54.7,29.84,SSE,158,0.0,0.0,64,0.00,OVC,OVC,0.00,WeatherDisplay:10.37,2013-09-26 05:21:00,
2013-09-26 00:26:00,67.2,54.6,29.84,SSE,158,0.0,0.0,64,0.00,OVC,OVC,0.00,WeatherDisplay:10.37,2013-09-26 05:26:00,
2013-09-26 00:31:00,67.2,54.6,29.84,SSE,158,0.0,0.0,64,0.00,OVC,OVC,0.00,WeatherDisplay:10.37,2013-09-26 05:31:00,
2013-09-26 00:36:00,67.1,54.5,29.85,SSE,158,3.5,3.5,64,0.00,OVC,OVC,0.00,WeatherDisplay:10.37,2013-09-26 05:36:00,
2013-09-26 00:41:00,67.0,54.0,29.85,SSE,158,0.0,0.0,63,0.00,OVC,OVC,0.00,WeatherDisplay:10.37,2013-09-26 05:41:00,
2013-09-26 00:46:00,67.0,54.0,29.85,SSE,158,1.2,1.2,63,0.00,OVC,OVC,0.00,WeatherDisplay:10.37,2013-09-26 05:46:00,
2013-09-26 00:51:00,67.0,54.0,29.84,SSE,158,3.5,3.5,63,0.00,OVC,OVC,0.00,WeatherDisplay:10.37,2013-09-26 05:51:00,
2013-09-26 00:56:00,67.0,54.0,29.84,SSE,158,0.0,0.0,63,0.00,OVC,OVC,0.00,WeatherDisplay:10.37,2013-09-26 05:56:00,
2013-09-26 01:01:00,67.0,54.0,29.85,SSE,158,0.0,0.0,63,0.00,OVC,OVC,0.00,WeatherDisplay:10.37,2013-09-26 06:01:00,
2013-09-26 01:06:00,66.9,53.9,29.85,SSE,158,0.0,0.0,63,0.00,OVC,OVC,0.00,WeatherDisplay:10.37,2013-09-26 06:06:00,
2013-09-26 01:11:00,66.8,53.8,29.85,SSE,158,0.0,0.0,63,0.00,OVC,OVC,0.00,WeatherDisplay:10.37,2013-09-26 06:11:00,
2013-09-26 01:16:00,66.7,53.3,29.85,SSE,158,0.0,0.0,62,0.00,OVC,OVC,0.00,WeatherDisplay:10.37,2013-09-26 06:16:00,
2013-09-26 01:21:00,66.5,53.1,29.85,SSE,158,0.0,0.0,62,0.00,OVC,OVC,0.00,WeatherDisplay:10.37,2013-09-26 06:21:00,
2013-09-26 01:26:00,66.4,53.0,29.85,SSE,158,0.0,0.0,62,0.00,OVC,OVC,0.00,WeatherDisplay:10.37,2013-09-26 06:26:00,
2013-09-26 01:31:00,66.2,52.8,29.85,SSE,158,0.0,0.0,62,0.00,OVC,OVC,0.00,WeatherDisplay:10.37,2013-09-26 06:31:00,
2013-09-26 01:36:00,66.0,52.6,29.86,SSE,158,0.0,0.0,62,0.00,OVC,OVC,0.00,WeatherDisplay:10.37,2013-09-26 06:36:00,
2013-09-26 01:41:00,65.9,52.1,29.86,SSE,158,0.0,0.0,61,0.00,OVC,OVC,0.00,WeatherDisplay:10.37,2013-09-26 06:41:00,
2013-09-26 01:46:00,65.7,51.9,29.86,SSE,158,0.0,0.0,61,0.00,OVC,OVC,0.00,WeatherDisplay:10.37,2013-09-26 06:46:00,
2013-09-26 01:51:00,65.6,51.3,29.86,SSE,158,0.0,0.0,60,0.00,OVC,OVC,0.00,WeatherDisplay:10.37,2013-09-26 06:51:00,
2013-09-26 01:56:00,65.4,51.1,29.86,SSE,158,2.3,2.3,60,0.00,OVC,OVC,0.00,WeatherDisplay:10.37,2013-09-26 06:56:00,
2013-09-26 02:01:00,65.2,51.0,29.87,SSE,158,0.0,0.0,60,0.00,OVC,OVC,0.00,WeatherDisplay:10.37,2013-09-26 07:01:00,
2013-09-26 02:06:00,65.0,50.3,29.87,SSE,158,0.0,0.0,59,0.00,OVC,OVC,0.00,WeatherDisplay:10.37,2013-09-26 07:06:00,
2013-09-26 02:11:00,64.9,50.2,29.87,SSE,158,0.0,0.0,59,0.00,OVC,OVC,0.00,WeatherDisplay:10.37,2013-09-26 07:11:00,
2013-09-26 02:16:00,64.8,49.7,29.87,SSE,158,0.0,0.0,58,0.00,OVC,OVC,0.00,WeatherDisplay:10.37,2013-09-26 07:16:00,
2013-09-26 02:21:00,64.6,49.5,29.86,SSE,158,1.2,1.2,58,0.00,OVC,OVC,0.00,WeatherDisplay:10.37,2013-09-26 07:21:00,
2013-09-26 02:27:00,64.5,48.9,29.86,SSE,158,2.3,2.3,57,0.00,OVC,OVC,0.00,WeatherDisplay:10.37,2013-09-26 07:27:00,
2013-09-26 02:32:00,64.4,48.8,29.86,SSE,158,0.0,0.0,57,0.00,OVC,OVC,0.00,WeatherDisplay:10.37,2013-09-26 07:32:00,
2013-09-26 02:37:00,64.3,48.7,29.86,SSE,158,2.3,0.0,57,0.00,OVC,OVC,0.00,WeatherDisplay:10.37,2013-09-26 07:37:00,
2013-09-26 02:42:00,64.3,48.7,29.86,SSE,158,2.3,0.0,57,0.00,OVC,OVC,0.00,WeatherDisplay:10.37,2013-09-26 07:42:00,
2013-09-26 02:47:00,64.2,48.2,29.86,SSE,158,1.2,1.2,56,0.00,OVC,OVC,0.00,WeatherDisplay:10.37,2013-09-26 07:47:00,
2013-09-26 02:52:00,64.1,48.1,29.86,SSE,158,3.5,3.5,56,0.00,OVC,OVC,0.00,WeatherDisplay:10.37,2013-09-26 07:52:00,
2013-09-26 02:57:00,64.0,48.0,29.87,SSE,158,2.3,2.3,56,0.00,OVC,OVC,0.00,WeatherDisplay:10.37,2013-09-26 07:57:00,
2013-09-26 03:02:00,64.0,48.0,29.87,SSE,158,0.0,0.0,56,0.00,OVC,OVC,0.00,WeatherDisplay:10.37,2013-09-26 08:02:00,
2013-09-26 03:07:00,63.9,47.9,29.87,SSE,158,0.0,0.0,56,0.00,OVC,OVC,0.00,WeatherDisplay:10.37,2013-09-26 08:07:00,
2013-09-26 03:12:00,63.7,47.7,29.87,SSE,158,0.0,0.0,56,0.00,OVC,OVC,0.00,WeatherDisplay:10.37,2013-09-26 08:12:00,
2013-09-26 03:17:00,63.6,47.6,29.87,SSE,158,0.0,0.0,56,0.00,OVC,OVC,0.00,WeatherDisplay:10.37,2013-09-26 08:17:00,
2013-09-26 03:22:00,63.6,47.1,29.87,SSE,158,2.3,0.0,55,0.00,OVC,OVC,0.00,WeatherDisplay:10.37,2013-09-26 08:22:00,
2013-09-26 03:27:00,63.4,46.9,29.87,SSE,158,0.0,0.2,55,0.00,OVC,OVC,0.00,WeatherDisplay:10.37,2013-09-26 08:27:00,
2013-09-26 03:32:00,63.3,46.9,29.87,SSE,158,0.0,0.4,55,0.00,OVC,OVC,0.00,WeatherDisplay:10.37,2013-09-26 08:32:00,
2013-09-26 03:37:00,63.2,46.8,29.87,SSE,158,1.2,1.2,55,0.00,OVC,OVC,0.00,WeatherDisplay:10.37,2013-09-26 08:37:00,
2013-09-26 03:42:00,63.1,46.7,29.87,SSE,158,0.0,0.0,55,0.00,OVC,OVC,0.00,WeatherDisplay:10.37,2013-09-26 08:42:00,
2013-09-26 03:47:00,63.0,46.6,29.87,SSE,158,0.0,0.0,55,0.00,OVC,OVC,0.00,WeatherDisplay:10.37,2013-09-26 08:47:00,
2013-09-26 03:52:00,62.9,46.0,29.87,SSE,158,1.0,1.0,54,0.00,OVC,OVC,0.00,WeatherDisplay:10.37,2013-09-26 08:52:00,
2013-09-26 03:57:00,62.7,45.8,29.87,SSE,158,0.0,0.1,54,0.00,OVC,OVC,0.00,WeatherDisplay:10.37,2013-09-26 08:57:00,
2013-09-26 04:02:00,62.7,45.8,29.87,SSE,158,1.2,0.0,54,0.00,OVC,OVC,0.00,WeatherDisplay:10.37,2013-09-26 09:02:00,
2013-09-26 04:07:00,62.6,45.7,29.87,SSE,158,2.3,0.0,54,0.00,OVC,OVC,0.00,WeatherDisplay:10.37,2013-09-26 09:07:00,
2013-09-26 04:12:00,62.5,45.1,29.87,SSE,158,0.0,0.0,53,0.00,OVC,OVC,0.00,WeatherDisplay:10.37,2013-09-26 09:12:00,
2013-09-26 04:17:00,62.4,45.0,29.87,SSE,158,1.2,1.2,53,0.00,OVC,OVC,0.00,WeatherDisplay:10.37,2013-09-26 09:17:00,
2013-09-26 04:22:00,62.4,45.0,29.87,SSE,158,0.0,0.0,53,0.00,OVC,OVC,0.00,WeatherDisplay:10.37,2013-09-26 09:22:00,
2013-09-26 04:27:00,62.3,44.9,29.87,SSE,158,0.0,0.0,53,0.00,OVC,OVC,0.00,WeatherDisplay:10.37,2013-09-26 09:27:00,
2013-09-26 04:32:00,62.2,44.9,29.87,SSE,158,2.3,2.3,53,0.00,OVC,OVC,0.00,WeatherDisplay:10.37,2013-09-26 09:32:00,
2013-09-26 04:37:00,62.2,44.3,29.87,SSE,158,1.0,1.0,52,0.00,OVC,OVC,0.00,WeatherDisplay:10.37,2013-09-26 09:37:00,
2013-09-26 04:42:00,62.1,44.3,29.87,SSE,158,0.0,0.0,52,0.00,OVC,OVC,0.00,WeatherDisplay:10.37,2013-09-26 09:42:00,
2013-09-26 04:47:00,62.1,44.3,29.87,SSE,158,0.0,0.0,52,0.00,OVC,OVC,0.00,WeatherDisplay:10.37,2013-09-26 09:47:00,
2013-09-26 04:52:00,62.1,44.3,29.87,SSE,168,3.5,3.5,52,0.00,OVC,OVC,0.00,WeatherDisplay:10.37,2013-09-26 09:52:00,
2013-09-26 04:58:00,62.1,44.3,29.87,SSE,168,2.3,2.3,52,0.00,OVC,OVC,0.00,WeatherDisplay:10.37,2013-09-26 09:58:00,
2013-09-26 05:03:00,62.1,43.7,29.87,SSE,168,1.2,1.2,51,0.00,OVC,OVC,0.00,WeatherDisplay:10.37,2013-09-26 10:03:00,
2013-09-26 05:08:00,62.0,43.7,29.87,SE,141,2.3,2.3,51,0.00,OVC,OVC,0.00,WeatherDisplay:10.37,2013-09-26 10:08:00,
2013-09-26 05:13:00,62.0,43.7,29.87,SE,145,1.0,1.0,51,0.00,OVC,OVC,0.00,WeatherDisplay:10.37,2013-09-26 10:13:00,
2013-09-26 05:18:00,62.0,43.7,29.87,SSE,164,3.5,3.5,51,0.00,OVC,OVC,0.00,WeatherDisplay:10.37,2013-09-26 10:18:00,
2013-09-26 05:23:00,62.0,43.7,29.87,SSE,163,3.5,3.5,51,0.00,OVC,OVC,0.00,WeatherDisplay:10.37,2013-09-26 10:23:00,
2013-09-26 05:28:00,62.1,43.7,29.87,SSE,163,2.3,2.3,51,0.00,OVC,OVC,0.00,WeatherDisplay:10.37,2013-09-26 10:28:00,
2013-09-26 05:33:00,62.0,43.7,29.87,SSE,163,0.0,0.0,51,0.00,OVC,OVC,0.00,WeatherDisplay:10.37,2013-09-26 10:33:00,
2013-09-26 05:38:00,62.0,43.7,29.87,SSE,163,1.2,0.0,51,0.00,OVC,OVC,0.00,WeatherDisplay:10.37,2013-09-26 10:38:00,
2013-09-26 05:43:00,62.1,43.2,29.87,SSE,156,2.0,2.0,50,0.00,OVC,OVC,0.00,WeatherDisplay:10.37,2013-09-26 10:43:00,
2013-09-26 05:48:00,62.1,43.2,29.87,SSE,156,2.3,2.3,50,0.00,OVC,OVC,0.00,WeatherDisplay:10.37,2013-09-26 10:48:00,
2013-09-26 05:53:00,62.2,43.3,29.87,SSE,157,3.5,3.5,50,0.00,OVC,OVC,0.00,WeatherDisplay:10.37,2013-09-26 10:53:00,
2013-09-26 05:58:00,62.2,43.3,29.87,SSE,153,5.8,5.8,50,0.00,OVC,OVC,0.00,WeatherDisplay:10.37,2013-09-26 10:58:00,
2013-09-26 06:03:00,62.2,43.3,29.87,SSE,161,2.3,2.3,50,0.00,OVC,OVC,0.00,WeatherDisplay:10.37,2013-09-26 11:03:00,
2013-09-26 06:08:00,62.2,43.3,29.87,SSE,158,4.0,4.0,50,0.00,OVC,OVC,0.00,WeatherDisplay:10.37,2013-09-26 11:08:00,
2013-09-26 06:13:00,62.2,43.3,29.87,SSE,153,2.3,2.3,50,0.00,OVC,OVC,0.00,WeatherDisplay:10.37,2013-09-26 11:13:00,
2013-09-26 06:18:00,62.2,43.8,29.87,SSE,153,3.5,3.5,51,0.00,OVC,OVC,0.00,WeatherDisplay:10.37,2013-09-26 11:18:00,
2013-09-26 06:23:00,62.1,43.7,29.88,SSE,148,3.5,3.5,51,0.00,OVC,OVC,0.00,WeatherDisplay:10.37,2013-09-26 11:23:00,
2013-09-26 06:28:00,62.1,43.7,29.87,SSE,155,2.3,2.3,51,0.00,OVC,OVC,0.00,WeatherDisplay:10.37,2013-09-26 11:28:00,
2013-09-26 06:33:00,62.1,44.3,29.87,SSE,157,2.3,2.3,52,0.00,OVC,OVC,0.00,WeatherDisplay:10.37,2013-09-26 11:33:00,
2013-09-26 06:38:00,62.1,44.8,29.87,SSE,159,1.2,0.0,53,0.00,OVC,OVC,0.00,WeatherDisplay:10.37,2013-09-26 11:38:00,
2013-09-26 06:43:00,62.1,44.8,29.87,SSE,158,3.5,3.5,53,0.00,OVC,OVC,0.00,WeatherDisplay:10.37,2013-09-26 11:43:00,
2013-09-26 06:48:00,62.2,45.3,29.88,SSE,157,3.5,3.5,54,0.00,OVC,OVC,0.00,WeatherDisplay:10.37,2013-09-26 11:48:00,
2013-09-26 06:53:00,62.3,45.9,29.88,South,175,3.5,3.5,55,0.00,OVC,OVC,0.00,WeatherDisplay:10.37,2013-09-26 11:53:00,
2013-09-26 06:58:00,62.5,46.6,29.88,SE,145,3.5,3.5,56,0.00,OVC,OVC,0.00,WeatherDisplay:10.37,2013-09-26 11:58:00,
2013-09-26 07:03:00,62.7,47.2,29.89,SSE,153,9.2,9.2,57,0.00,OVC,OVC,0.00,WeatherDisplay:10.37,2013-09-26 12:03:00,
2013-09-26 07:08:00,62.8,47.8,29.88,ESE,103,2.3,2.3,58,0.00,OVC,OVC,0.00,WeatherDisplay:10.37,2013-09-26 12:08:00,
2013-09-26 07:13:00,62.8,48.3,29.88,SSE,163,4.6,4.6,59,0.00,OVC,OVC,0.00,WeatherDisplay:10.37,2013-09-26 12:13:00,
2013-09-26 07:18:00,62.9,48.3,29.89,SSE,155,2.3,0.0,59,0.00,OVC,OVC,0.00,WeatherDisplay:10.37,2013-09-26 12:18:00,
2013-09-26 07:23:00,62.9,48.8,29.89,SSE,157,3.5,3.5,60,0.00,OVC,OVC,0.00,WeatherDisplay:10.37,2013-09-26 12:23:00,
2013-09-26 07:28:00,62.9,48.8,29.89,SSE,165,4.6,4.6,60,0.00,OVC,OVC,0.00,WeatherDisplay:10.37,2013-09-26 12:28:00,
2013-09-26 07:33:00,62.9,49.2,29.89,SSE,160,4.6,4.6,61,0.00,OVC,OVC,0.00,WeatherDisplay:10.37,2013-09-26 12:33:00,
2013-09-26 07:38:00,63.0,49.3,29.89,SE,134,3.5,3.5,61,0.00,OVC,OVC,0.00,WeatherDisplay:10.37,2013-09-26 12:38:00,
2013-09-26 07:43:00,63.0,49.3,29.89,SSE,150,5.8,5.8,61,0.00,OVC,OVC,0.00,WeatherDisplay:10.37,2013-09-26 12:43:00,
2013-09-26 07:48:00,63.1,49.9,29.90,SSE,168,6.0,6.0,62,0.00,OVC,OVC,0.00,WeatherDisplay:10.37,2013-09-26 12:48:00,
2013-09-26 07:53:00,63.2,50.0,29.89,SE,129,5.8,5.8,62,0.00,OVC,OVC,0.00,WeatherDisplay:10.37,2013-09-26 12:53:00,
2013-09-26 07:58:00,63.2,50.0,29.90,SSE,164,3.5,3.5,62,0.00,OVC,OVC,0.00,WeatherDisplay:10.37,2013-09-26 12:58:00,
2013-09-26 08:03:00,63.4,50.6,29.90,SSE,151,3.5,3.5,63,0.00,OVC,OVC,0.00,WeatherDisplay:10.37,2013-09-26 13:03:00,
2013-09-26 08:08:00,63.5,50.7,29.90,SE,139,3.5,3.5,63,0.00,OVC,OVC,0.00,WeatherDisplay:10.37,2013-09-26 13:08:00,
2013-09-26 08:13:00,63.7,50.9,29.90,SSE,157,4.0,4.0,63,0.00,OVC,OVC,0.00,WeatherDisplay:10.37,2013-09-26 13:13:00,
2013-09-26 08:18:00,64.0,51.1,29.90,SSE,164,3.5,3.5,63,0.00,OVC,OVC,0.00,WeatherDisplay:10.37,2013-09-26 13:18:00,
2013-09-26 08:23:00,64.2,51.3,29.89,South,184,6.9,6.9,63,0.00,OVC,OVC,0.00,WeatherDisplay:10.37,2013-09-26 13:23:00,
2013-09-26 08:28:00,64.5,52.0,29.90,SSE,158,3.5,3.5,64,0.00,OVC,OVC,0.00,WeatherDisplay:10.37,2013-09-26 13:28:00,
2013-09-26 08:33:00,64.8,52.3,29.90,SSW,193,10.4,10.4,64,0.00,OVC,OVC,0.00,WeatherDisplay:10.37,2013-09-26 13:33:00,
2013-09-26 08:38:00,65.1,52.6,29.90,SSE,167,6.9,6.9,64,0.00,OVC,OVC,0.00,WeatherDisplay:10.37,2013-09-26 13:38:00,
2013-09-26 08:44:00,65.4,52.9,29.90,SSE,160,3.5,3.5,64,0.00,OVC,OVC,0.00,WeatherDisplay:10.37,2013-09-26 13:44:00,
2013-09-26 08:49:00,65.7,53.6,29.90,South,173,6.9,6.9,65,0.00,OVC,OVC,0.00,WeatherDisplay:10.37,2013-09-26 13:49:00,
2013-09-26 08:54:00,65.9,53.8,29.90,SSE,153,5.8,5.8,65,0.00,OVC,OVC,0.00,WeatherDisplay:10.37,2013-09-26 13:54:00,
2013-09-26 08:59:00,66.1,54.0,29.91,SSE,160,3.5,3.5,65,0.00,OVC,OVC,0.00,WeatherDisplay:10.37,2013-09-26 13:59:00,
2013-09-26 09:04:00,66.4,54.3,29.91,SSE,153,4.0,4.0,65,0.00,OVC,OVC,0.00,WeatherDisplay:10.37,2013-09-26 14:04:00,
2013-09-26 09:09:00,66.6,54.9,29.91,SSE,147,4.6,4.6,66,0.00,OVC,OVC,0.00,WeatherDisplay:10.37,2013-09-26 14:09:00,
2013-09-26 09:14:00,66.8,55.1,29.91,SSE,157,5.0,5.0,66,0.00,OVC,OVC,0.00,WeatherDisplay:10.37,2013-09-26 14:14:00,
2013-09-26 09:19:00,67.1,55.4,29.91,SSE,164,8.1,8.1,66,0.00,OVC,OVC,0.00,WeatherDisplay:10.37,2013-09-26 14:19:00,
2013-09-26 09:24:00,67.4,55.6,29.91,South,169,3.5,3.5,66,0.00,OVC,OVC,0.00,WeatherDisplay:10.37,2013-09-26 14:24:00,
2013-09-26 09:29:00,67.7,55.9,29.91,SSE,156,3.5,3.5,66,0.00,OVC,OVC,0.00,WeatherDisplay:10.37,2013-09-26 14:29:00,
2013-09-26 09:34:00,67.9,56.1,29.91,South,177,4.0,4.0,66,0.00,OVC,OVC,0.00,WeatherDisplay:10.37,2013-09-26 14:34:00,
2013-09-26 09:39:00,68.1,56.3,29.91,South,169,4.6,4.6,66,0.00,OVC,OVC,0.00,WeatherDisplay:10.37,2013-09-26 14:39:00,
2013-09-26 09:44:00,68.5,56.7,29.91,SSE,153,3.5,3.5,66,0.00,OVC,OVC,0.00,WeatherDisplay:10.37,2013-09-26 14:44:00,
2013-09-26 09:49:00,68.8,57.0,29.91,ESE,111,8.1,8.1,66,0.00,OVC,OVC,0.00,WeatherDisplay:10.37,2013-09-26 14:49:00,
2013-09-26 09:54:00,69.2,57.4,29.91,SSE,157,4.6,4.6,66,0.00,OVC,OVC,0.00,WeatherDisplay:10.37,2013-09-26 14:54:00,
2013-09-26 09:59:00,69.6,57.7,29.91,SSE,152,2.3,2.3,66,0.00,OVC,OVC,0.00,WeatherDisplay:10.37,2013-09-26 14:59:00,
2013-09-26 10:04:00,70.2,58.3,29.91,SE,144,3.5,3.5,66,0.00,OVC,OVC,0.00,WeatherDisplay:10.37,2013-09-26 15:04:00,
2013-09-26 10:09:00,70.7,58.8,29.91,SSE,153,2.3,2.3,66,0.00,OVC,OVC,0.00,WeatherDisplay:10.37,2013-09-26 15:09:00,
2013-09-26 10:14:00,71.4,59.4,29.90,South,169,6.9,6.9,66,0.00,OVC,OVC,0.00,WeatherDisplay:10.37,2013-09-26 15:14:00,
2013-09-26 10:19:00,71.8,59.4,29.90,SSE,166,5.0,5.0,65,0.00,OVC,OVC,0.00,WeatherDisplay:10.37,2013-09-26 15:19:00,
2013-09-26 10:24:00,72.3,59.4,29.90,SE,136,15.0,15.0,64,0.00,OVC,OVC,0.00,WeatherDisplay:10.37,2013-09-26 15:24:00,
2013-09-26 10:29:00,72.6,59.7,29.90,SSE,157,4.0,4.0,64,0.00,OVC,OVC,0.00,WeatherDisplay:10.37,2013-09-26 15:29:00,
2013-09-26 10:34:00,73.1,59.8,29.90,SSE,161,11.5,11.5,63,0.00,OVC,OVC,0.00,WeatherDisplay:10.37,2013-09-26 15:34:00,
2013-09-26 10:39:00,73.3,59.9,29.90,SSE,153,5.8,5.8,63,0.00,OVC,OVC,0.00,WeatherDisplay:10.37,2013-09-26 15:39:00,
2013-09-26 10:44:00,73.7,59.9,29.90,SSE,167,6.9,6.9,62,0.00,OVC,OVC,0.00,WeatherDisplay:10.37,2013-09-26 15:44:00,
2013-09-26 10:49:00,74.1,60.2,29.90,SSE,152,5.8,5.8,62,0.00,OVC,OVC,0.00,WeatherDisplay:10.37,2013-09-26 15:49:00,
2013-09-26 10:54:00,74.6,60.3,29.89,South,169,6.9,6.9,61,0.00,OVC,OVC,0.00,WeatherDisplay:10.37,2013-09-26 15:54:00,
2013-09-26 10:59:00,75.1,60.3,29.90,SE,143,3.5,3.5,60,0.00,OVC,OVC,0.00,WeatherDisplay:10.37,2013-09-26 15:59:00,
2013-09-26 11:04:00,75.6,60.3,29.89,ESE,103,6.9,6.9,59,0.00,OVC,OVC,0.00,WeatherDisplay:10.37,2013-09-26 16:04:00,
2013-09-26 11:09:00,75.9,60.5,29.89,SE,136,11.5,11.5,59,0.00,OVC,OVC,0.00,WeatherDisplay:10.37,2013-09-26 16:09:00,
2013-09-26 11:14:00,76.2,60.3,29.89,WSW,248,13.8,13.8,58,0.00,OVC,OVC,0.00,WeatherDisplay:10.37,2013-09-26 16:14:00,
2013-09-26 11:20:00,76.5,60.6,29.89,South,179,9.2,9.2,58,0.00,OVC,OVC,0.00,WeatherDisplay:10.37,2013-09-26 16:20:00,
2013-09-26 11:25:00,76.9,60.5,29.89,SSE,168,16.1,16.1,57,0.00,OVC,OVC,0.00,WeatherDisplay:10.37,2013-09-26 16:25:00,
2013-09-26 11:30:00,77.3,60.9,29.89,SSE,163,9.2,9.2,57,0.00,OVC,OVC,0.00,WeatherDisplay:10.37,2013-09-26 16:30:00,
2013-09-26 11:35:00,77.7,60.8,29.89,ESE,120,10.4,10.4,56,0.00,OVC,OVC,0.00,WeatherDisplay:10.37,2013-09-26 16:35:00,
2013-09-26 11:40:00,78.1,61.1,29.88,SSE,161,6.9,6.9,56,0.00,CLR,CLR,0.00,WeatherDisplay:10.37,2013-09-26 16:40:00,
2013-09-26 11:45:00,78.7,61.2,29.88,SSW,205,11.5,11.5,55,0.00,OVC,OVC,0.00,WeatherDisplay:10.37,2013-09-26 16:45:00,
2013-09-26 11:50:00,79.0,60.4,29.88,South,174,11.5,11.5,53,0.00,OVC,OVC,0.00,WeatherDisplay:10.37,2013-09-26 16:50:00,
2013-09-26 11:55:00,79.2,60.1,29.88,South,172,13.8,13.8,52,0.00,OVC,OVC,0.00,WeatherDisplay:10.37,2013-09-26 16:55:00,
2013-09-26 12:00:00,79.4,59.7,29.88,SSE,153,13.8,13.8,51,0.00,OVC,OVC,0.00,WeatherDisplay:10.37,2013-09-26 17:00:00,
2013-09-26 12:06:00,79.5,59.8,29.88,SSE,150,11.5,11.5,51,0.00,OVC,OVC,0.00,WeatherDisplay:10.37,2013-09-26 17:06:00,
2013-09-26 12:11:00,79.8,60.1,29.88,SSE,151,9.0,9.0,51,0.00,OVC,OVC,0.00,WeatherDisplay:10.37,2013-09-26 17:11:00,
2013-09-26 12:16:00,80.1,60.3,29.88,SSW,192,14.0,14.0,51,0.00,OVC,OVC,0.00,WeatherDisplay:10.37,2013-09-26 17:16:00,
2013-09-26 12:21:00,80.4,59.5,29.88,South,180,11.5,11.5,49,0.00,OVC,OVC,0.00,WeatherDisplay:10.37,2013-09-26 17:21:00,
2013-09-26 12:26:00,80.7,59.8,29.87,SSE,147,13.8,13.8,49,0.00,OVC,OVC,0.00,WeatherDisplay:10.37,2013-09-26 17:26:00,
2013-09-26 12:31:00,81.0,60.0,29.87,SE,142,10.4,10.4,49,0.00,OVC,OVC,0.00,WeatherDisplay:10.37,2013-09-26 17:31:00,
2013-09-26 12:36:00,81.4,59.2,29.87,SE,128,11.5,11.5,47,0.00,OVC,OVC,0.00,WeatherDisplay:10.37,2013-09-26 17:36:00,
2013-09-26 12:41:00,81.4,59.2,29.87,South,187,16.1,16.1,47,0.00,OVC,OVC,0.00,WeatherDisplay:10.37,2013-09-26 17:41:00,
2013-09-26 12:46:00,81.1,59.6,29.87,SSE,157,6.9,6.9,48,0.00,OVC,OVC,0.00,WeatherDisplay:10.37,2013-09-26 17:46:00,
2013-09-26 12:51:00,81.6,59.4,29.87,SSE,153,16.1,16.1,47,0.00,OVC,OVC,0.00,WeatherDisplay:10.37,2013-09-26 17:51:00,
2013-09-26 12:56:00,81.8,59.0,29.87,SE,141,12.7,12.7,46,0.00,OVC,OVC,0.00,WeatherDisplay:10.37,2013-09-26 17:56:00,
2013-09-26 13:01:00,81.8,59.0,29.86,SSE,166,6.9,6.9,46,0.00,OVC,OVC,0.00,WeatherDisplay:10.37,2013-09-26 18:01:00,
2013-09-26 13:07:00,82.0,58.6,29.86,ESE,102,10.4,10.4,45,0.00,OVC,OVC,0.00,WeatherDisplay:10.37,2013-09-26 18:07:00,
2013-09-26 13:12:00,82.1,58.7,29.86,SSE,152,7.0,7.0,45,0.00,OVC,OVC,0.00,WeatherDisplay:10.37,2013-09-26 18:12:00,
2013-09-26 13:17:00,82.3,58.2,29.86,South,180,12.7,12.7,44,0.00,OVC,OVC,0.00,WeatherDisplay:10.37,2013-09-26 18:17:00,
2013-09-26 13:22:00,82.4,57.7,29.86,SE,142,20.7,20.7,43,0.00,OVC,OVC,0.00,WeatherDisplay:10.37,2013-09-26 18:22:00,
2013-09-26 13:27:00,82.5,58.4,29.85,SE,132,9.2,9.2,44,0.00,OVC,OVC,0.00,WeatherDisplay:10.37,2013-09-26 18:27:00,
2013-09-26 13:32:00,82.7,57.9,29.85,SSE,166,12.7,12.7,43,0.00,OVC,OVC,0.00,WeatherDisplay:10.37,2013-09-26 18:32:00,
2013-09-26 13:37:00,82.6,57.8,29.85,SE,136,15.0,15.0,43,0.00,OVC,OVC,0.00,WeatherDisplay:10.37,2013-09-26 18:37:00,
2013-09-26 13:42:00,82.9,58.1,29.85,SE,146,10.4,10.4,43,0.00,OVC,OVC,0.00,WeatherDisplay:10.37,2013-09-26 18:42:00,
2013-09-26 13:47:00,83.1,58.3,29.85,SSE,155,11.5,11.5,43,0.00,OVC,OVC,0.00,WeatherDisplay:10.37,2013-09-26 18:47:00,
2013-09-26 13:52:00,83.3,58.5,29.85,SSE,153,4.6,5.1,43,0.00,OVC,OVC,0.00,WeatherDisplay:10.37,2013-09-26 18:52:00,
2013-09-26 13:57:00,83.7,58.2,29.85,SE,142,11.5,11.5,42,0.00,OVC,OVC,0.00,WeatherDisplay:10.37,2013-09-26 18:57:00,
2013-09-26 14:02:00,83.8,58.3,29.84,SE,131,4.0,4.0,42,0.00,OVC,OVC,0.00,WeatherDisplay:10.37,2013-09-26 19:02:00,
2013-09-26 14:07:00,84.0,57.8,29.84,South,169,11.5,11.5,41,0.00,OVC,OVC,0.00,WeatherDisplay:10.37,2013-09-26 19:07:00,
2013-09-26 14:12:00,84.0,57.1,29.84,SSE,165,8.1,8.1,40,0.00,OVC,OVC,0.00,WeatherDisplay:10.37,2013-09-26 19:12:00,
2013-09-26 14:17:00,84.1,57.9,29.84,ESE,122,9.2,9.2,41,0.00,OVC,OVC,0.00,WeatherDisplay:10.37,2013-09-26 19:17:00,
2013-09-26 14:22:00,84.2,57.3,29.84,SSE,167,11.5,11.5,40,0.00,OVC,OVC,0.00,WeatherDisplay:10.37,2013-09-26 19:22:00,
2013-09-26 14:27:00,84.5,57.5,29.84,SSE,150,8.1,8.1,40,0.00,OVC,OVC,0.00,WeatherDisplay:10.37,2013-09-26 19:27:00,
2013-09-26 14:32:00,84.9,57.2,29.84,South,172,16.0,16.0,39,0.00,OVC,OVC,0.00,WeatherDisplay:10.37,2013-09-26 19:32:00,
2013-09-26 14:37:00,85.2,57.4,29.84,South,184,12.7,12.7,39,0.00,OVC,OVC,0.00,WeatherDisplay:10.37,2013-09-26 19:37:00,
2013-09-26 14:42:00,85.0,57.3,29.83,SE,139,9.2,9.2,39,0.00,OVC,OVC,0.00,WeatherDisplay:10.37,2013-09-26 19:42:00,
2013-09-26 14:47:00,85.1,57.4,29.84,SSE,166,9.2,9.2,39,0.00,OVC,OVC,0.00,WeatherDisplay:10.37,2013-09-26 19:47:00,
2013-09-26 14:52:00,85.0,56.5,29.83,SSE,154,10.4,10.4,38,0.00,OVC,OVC,0.00,WeatherDisplay:10.37,2013-09-26 19:52:00,
2013-09-26 14:57:00,84.9,56.5,29.84,SSE,149,18.4,18.4,38,0.00,OVC,OVC,0.00,WeatherDisplay:10.37,2013-09-26 19:57:00,
2013-09-26 15:02:00,85.0,57.3,29.83,SSE,163,1.2,0.0,39,0.00,OVC,OVC,0.00,WeatherDisplay:10.37,2013-09-26 20:02:00,
2013-09-26 15:07:00,85.4,56.2,29.83,South,184,11.5,11.5,37,0.00,OVC,OVC,0.00,WeatherDisplay:10.37,2013-09-26 20:07:00,
2013-09-26 15:12:00,85.7,56.4,29.83,SE,135,9.2,9.2,37,0.00,OVC,OVC,0.00,WeatherDisplay:10.37,2013-09-26 20:12:00,
2013-09-26 15:17:00,85.9,58.1,29.83,SSE,167,11.5,11.5,39,0.00,OVC,OVC,0.00,WeatherDisplay:10.37,2013-09-26 20:17:00,
2013-09-26 15:22:00,85.7,57.2,29.83,SSE,159,11.5,11.5,38,0.00,OVC,OVC,0.00,WeatherDisplay:10.37,2013-09-26 20:22:00,
2013-09-26 15:28:00,85.5,57.0,29.83,ESE,116,13.8,13.8,38,0.00,OVC,OVC,0.00,WeatherDisplay:10.37,2013-09-26 20:28:00,
2013-09-26 15:33:00,85.1,56.6,29.83,SE,124,15.0,15.0,38,0.00,OVC,OVC,0.00,WeatherDisplay:10.37,2013-09-26 20:33:00,
2013-09-26 15:38:00,84.9,57.2,29.83,SSE,150,10.4,10.4,39,0.00,OVC,OVC,0.00,WeatherDisplay:10.37,2013-09-26 20:38:00,
2013-09-26 15:43:00,85.0,55.8,29.83,SSE,160,11.5,11.5,37,0.00,OVC,OVC,0.00,WeatherDisplay:10.37,2013-09-26 20:43:00,
2013-09-26 15:48:00,85.1,56.6,29.83,SE,146,11.0,11.0,38,0.00,OVC,OVC,0.00,WeatherDisplay:10.37,2013-09-26 20:48:00,
2013-09-26 15:53:00,85.0,56.5,29.83,ESE,117,5.8,5.8,38,0.00,OVC,OVC,0.00,WeatherDisplay:10.37,2013-09-26 20:53:00,
2013-09-26 15:58:00,84.7,56.3,29.83,SSE,157,11.0,11.0,38,0.00,OVC,OVC,0.00,WeatherDisplay:10.37,2013-09-26 20:58:00,
2013-09-26 16:03:00,84.4,56.0,29.83,SSE,161,11.5,11.5,38,0.00,OVC,OVC,0.00,WeatherDisplay:10.37,2013-09-26 21:03:00,
2013-09-26 16:08:00,84.3,56.6,29.83,SE,145,11.5,11.5,39,0.00,OVC,OVC,0.00,WeatherDisplay:10.37,2013-09-26 21:08:00,
2013-09-26 16:13:00,84.2,57.3,29.83,SSE,155,11.5,11.5,40,0.00,OVC,OVC,0.00,WeatherDisplay:10.37,2013-09-26 21:13:00,
2013-09-26 16:18:00,84.1,57.2,29.83,SE,139,10.4,10.4,40,0.00,OVC,OVC,0.00,WeatherDisplay:10.37,2013-09-26 21:18:00,
2013-09-26 16:23:00,84.2,57.3,29.83,SSE,150,10.4,10.4,40,0.00,OVC,OVC,0.00,WeatherDisplay:10.37,2013-09-26 21:23:00,
2013-09-26 16:28:00,84.2,57.9,29.83,SSE,150,12.0,12.0,41,0.00,OVC,OVC,0.00,WeatherDisplay:10.37,2013-09-26 21:28:00,
2013-09-26 16:33:00,84.0,57.1,29.83,SSE,157,11.5,11.5,40,0.00,OVC,OVC,0.00,WeatherDisplay:10.37,2013-09-26 21:33:00,
2013-09-26 16:38:00,83.9,57.0,29.82,SSE,165,11.5,11.5,40,0.00,OVC,OVC,0.00,WeatherDisplay:10.37,2013-09-26 21:38:00,
2013-09-26 16:43:00,83.7,57.5,29.82,SSE,155,5.8,5.8,41,0.00,OVC,OVC,0.00,WeatherDisplay:10.37,2013-09-26 21:43:00,
2013-09-26 16:48:00,83.6,56.7,29.82,SSE,165,13.8,13.8,40,0.00,OVC,OVC,0.00,WeatherDisplay:10.37,2013-09-26 21:48:00,
2013-09-26 16:53:00,83.4,57.2,29.83,West,263,11.5,11.5,41,0.00,OVC,OVC,0.00,WeatherDisplay:10.37,2013-09-26 21:53:00,
2013-09-26 16:58:00,83.3,57.1,29.83,SE,126,11.5,11.5,41,0.00,OVC,OVC,0.00,WeatherDisplay:10.37,2013-09-26 21:58:00,
2013-09-26 17:03:00,83.1,57.6,29.83,SSE,166,12.7,12.7,42,0.00,OVC,OVC,0.00,WeatherDisplay:10.37,2013-09-26 22:03:00,
2013-09-26 17:08:00,83.0,56.9,29.83,SSE,162,9.2,9.2,41,0.00,OVC,OVC,0.00,WeatherDisplay:10.37,2013-09-26 22:08:00,
2013-09-26 17:13:00,82.9,56.8,29.83,SSE,153,19.6,19.6,41,0.00,OVC,OVC,0.00,WeatherDisplay:10.37,2013-09-26 22:13:00,
2013-09-26 17:18:00,82.7,56.6,29.83,SSW,199,11.5,11.5,41,0.00,OVC,OVC,0.00,WeatherDisplay:10.37,2013-09-26 22:18:00,
2013-09-26 17:23:00,82.7,57.3,29.83,SE,133,9.2,9.2,42,0.00,OVC,OVC,0.00,WeatherDisplay:10.37,2013-09-26 22:23:00,
2013-09-26 17:29:00,82.5,56.4,29.83,SE,144,10.4,10.4,41,0.00,OVC,OVC,0.00,WeatherDisplay:10.37,2013-09-26 22:29:00,
2013-09-26 17:34:00,82.4,57.0,29.83,SSE,153,11.5,11.5,42,0.00,OVC,OVC,0.00,WeatherDisplay:10.37,2013-09-26 22:34:00,
2013-09-26 17:39:00,82.3,56.9,29.83,SE,124,13.8,13.8,42,0.00,OVC,OVC,0.00,WeatherDisplay:10.37,2013-09-26 22:39:00,
2013-09-26 17:44:00,82.2,56.8,29.83,SSE,148,3.5,3.5,42,0.00,OVC,OVC,0.00,WeatherDisplay:10.37,2013-09-26 22:44:00,
2013-09-26 17:49:00,82.1,56.7,29.83,SSE,154,6.9,6.9,42,0.00,OVC,OVC,0.00,WeatherDisplay:10.37,2013-09-26 22:49:00,
2013-09-26 17:54:00,81.9,56.6,29.83,South,169,11.0,11.0,42,0.00,OVC,OVC,0.00,WeatherDisplay:10.37,2013-09-26 22:54:00,
2013-09-26 17:59:00,81.8,56.5,29.83,ESE,120,9.2,9.2,42,0.00,OVC,OVC,0.00,WeatherDisplay:10.37,2013-09-26 22:59:00,
2013-09-26 18:04:00,81.7,56.4,29.83,SSE,163,11.0,11.0,42,0.00,OVC,OVC,0.00,WeatherDisplay:10.37,2013-09-26 23:04:00,
2013-09-26 18:09:00,81.5,56.2,29.83,SSE,167,5.8,5.8,42,0.00,OVC,OVC,0.00,WeatherDisplay:10.37,2013-09-26 23:09:00,
2013-09-26 18:14:00,81.3,56.7,29.83,SSE,153,3.5,0.0,43,0.00,OVC,OVC,0.00,WeatherDisplay:10.37,2013-09-26 23:14:00,
2013-09-26 18:19:00,81.1,57.1,29.83,SSE,156,8.1,8.1,44,0.00,OVC,OVC,0.00,WeatherDisplay:10.37,2013-09-26 23:19:00,
2013-09-26 18:24:00,80.9,56.9,29.83,SSE,153,5.8,5.8,44,0.00,OVC,OVC,0.00,WeatherDisplay:10.37,2013-09-26 23:24:00,
2013-09-26 18:29:00,80.7,56.8,29.83,SSE,161,5.8,5.8,44,0.00,OVC,OVC,0.00,WeatherDisplay:10.37,2013-09-26 23:29:00,
2013-09-26 18:34:00,80.5,56.6,29.83,SSE,152,4.6,4.6,44,0.00,OVC,OVC,0.00,WeatherDisplay:10.37,2013-09-26 23:34:00,
2013-09-26 18:39:00,80.3,56.4,29.83,South,175,3.5,3.5,44,0.00,OVC,OVC,0.00,WeatherDisplay:10.37,2013-09-26 23:39:00,
2013-09-26 18:44:00,80.1,56.8,29.83,SSE,159,3.5,3.5,45,0.00,OVC,OVC,0.00,WeatherDisplay:10.37,2013-09-26 23:44:00,
2013-09-26 18:49:00,79.8,56.6,29.83,SE,136,4.0,4.0,45,0.00,OVC,OVC,0.00,WeatherDisplay:10.37,2013-09-26 23:49:00,
2013-09-26 18:54:00,79.6,57.0,29.83,SSE,154,4.6,4.6,46,0.00,OVC,OVC,0.00,WeatherDisplay:10.37,2013-09-26 23:54:00,
2013-09-26 18:59:00,79.3,56.7,29.83,SSE,155,4.6,4.6,46,0.00,OVC,OVC,0.00,WeatherDisplay:10.37,2013-09-26 23:59:00,
2013-09-26 19:04:00,79.1,56.5,29.83,SE,137,9.2,9.2,46,0.00,OVC,OVC,0.00,WeatherDisplay:10.37,2013-09-27 00:04:00,
2013-09-26 19:10:00,78.9,56.4,29.83,SSE,165,2.3,2.3,46,0.00,OVC,OVC,0.00,WeatherDisplay:10.37,2013-09-27 00:10:00,
2013-09-26 19:15:00,78.7,56.8,29.83,SSE,148,3.5,3.5,47,0.00,OVC,OVC,0.00,WeatherDisplay:10.37,2013-09-27 00:15:00,
2013-09-26 19:20:00,78.4,57.1,29.83,SSE,156,4.6,4.6,48,0.00,OVC,OVC,0.00,WeatherDisplay:10.37,2013-09-27 00:20:00,
2013-09-26 19:25:00,78.1,56.8,29.83,SE,142,4.0,4.0,48,0.00,OVC,OVC,0.00,WeatherDisplay:10.37,2013-09-27 00:25:00,
2013-09-26 19:30:00,77.9,56.6,29.84,ESE,121,3.5,3.5,48,0.00,OVC,OVC,0.00,WeatherDisplay:10.37,2013-09-27 00:30:00,
2013-09-26 19:35:00,77.7,56.4,29.84,South,180,8.0,8.0,48,0.00,OVC,OVC,0.00,WeatherDisplay:10.37,2013-09-27 00:35:00,
2013-09-26 19:40:00,77.5,56.3,29.84,SSE,153,5.0,5.0,48,0.00,OVC,OVC,0.00,WeatherDisplay:10.37,2013-09-27 00:40:00,
2013-09-26 19:45:00,77.4,56.7,29.84,SSE,163,5.8,5.8,49,0.00,OVC,OVC,0.00,WeatherDisplay:10.37,2013-09-27 00:45:00,
2013-09-26 19:50:00,77.3,56.6,29.84,SSE,159,3.5,3.5,49,0.00,OVC,OVC,0.00,WeatherDisplay:10.37,2013-09-27 00:50:00,
2013-09-26 19:55:00,77.1,56.5,29.84,SSE,155,4.6,4.6,49,0.00,OVC,OVC,0.00,WeatherDisplay:10.37,2013-09-27 00:55:00,
2013-09-26 20:00:00,76.9,56.3,29.84,SSE,152,5.8,5.8,49,0.00,OVC,OVC,0.00,WeatherDisplay:10.37,2013-09-27 01:00:00,
2013-09-26 20:05:00,76.8,56.8,29.84,SSE,159,0.0,0.0,50,0.00,OVC,OVC,0.00,WeatherDisplay:10.37,2013-09-27 01:05:00,
2013-09-26 20:11:00,76.6,56.6,29.85,SSE,156,4.6,4.6,50,0.00,OVC,OVC,0.00,WeatherDisplay:10.37,2013-09-27 01:11:00,
2013-09-26 20:16:00,76.4,56.9,29.85,SSE,156,3.5,3.5,51,0.00,OVC,OVC,0.00,WeatherDisplay:10.37,2013-09-27 01:16:00,
2013-09-26 20:21:00,76.2,56.7,29.85,South,178,10.4,10.4,51,0.00,OVC,OVC,0.00,WeatherDisplay:10.37,2013-09-27 01:21:00,
2013-09-26 20:26:00,76.1,57.2,29.85,SSE,152,9.2,9.2,52,0.00,OVC,OVC,0.00,WeatherDisplay:10.37,2013-09-27 01:26:00,
2013-09-26 20:31:00,76.0,57.1,29.85,SE,141,3.5,3.6,52,0.00,OVC,OVC,0.00,WeatherDisplay:10.37,2013-09-27 01:31:00,
2013-09-26 20:36:00,75.8,56.9,29.86,South,188,5.8,5.8,52,0.00,OVC,OVC,0.00,WeatherDisplay:10.37,2013-09-27 01:36:00,
2013-09-26 20:41:00,75.6,56.7,29.85,South,173,4.6,4.6,52,0.00,OVC,OVC,0.00,WeatherDisplay:10.37,2013-09-27 01:41:00,
2013-09-26 20:46:00,75.4,57.1,29.86,SSE,160,5.8,5.8,53,0.00,OVC,OVC,0.00,WeatherDisplay:10.37,2013-09-27 01:46:00,
2013-09-26 20:51:00,75.2,56.9,29.86,SSE,150,2.3,2.3,53,0.00,OVC,OVC,0.00,WeatherDisplay:10.37,2013-09-27 01:51:00,
2013-09-26 20:56:00,75.1,57.3,29.86,SSE,151,6.9,6.9,54,0.00,OVC,OVC,0.00,WeatherDisplay:10.37,2013-09-27 01:56:00,
2013-09-26 21:01:00,74.9,57.1,29.86,SSE,150,6.9,6.9,54,0.00,OVC,OVC,0.00,WeatherDisplay:10.37,2013-09-27 02:01:00,
2013-09-26 21:06:00,74.8,57.0,29.86,SSE,157,2.3,2.3,54,0.00,OVC,OVC,0.00,WeatherDisplay:10.37,2013-09-27 02:06:00,
2013-09-26 21:11:00,74.7,56.9,29.86,SSE,161,3.5,3.5,54,0.00,OVC,OVC,0.00,WeatherDisplay:10.37,2013-09-27 02:11:00,
2013-09-26 21:16:00,74.5,56.8,29.87,SSE,150,6.9,6.9,54,0.00,OVC,OVC,0.00,WeatherDisplay:10.37,2013-09-27 02:16:00,
2013-09-26 21:21:00,74.3,57.1,29.87,SSE,153,3.5,3.5,55,0.00,OVC,OVC,0.00,WeatherDisplay:10.37,2013-09-27 02:21:00,
2013-09-26 21:26:00,74.2,57.0,29.87,SSE,161,6.9,6.9,55,0.00,OVC,OVC,0.00,WeatherDisplay:10.37,2013-09-27 02:26:00,
2013-09-26 21:31:00,74.1,56.9,29.87,SSE,167,5.8,5.8,55,0.00,OVC,OVC,0.00,WeatherDisplay:10.37,2013-09-27 02:31:00,
2013-09-26 21:36:00,73.9,57.2,29.87,SSE,157,3.5,3.5,56,0.00,OVC,OVC,0.00,WeatherDisplay:10.37,2013-09-27 02:36:00,
2013-09-26 21:42:00,73.8,57.1,29.88,SSE,161,3.5,3.5,56,0.00,OVC,OVC,0.00,WeatherDisplay:10.37,2013-09-27 02:42:00,
2013-09-26 21:47:00,73.5,56.8,29.88,SE,145,5.0,5.0,56,0.00,OVC,OVC,0.00,WeatherDisplay:10.37,2013-09-27 02:47:00,
2013-09-26 21:52:00,73.4,57.2,29.88,SE,140,9.0,9.0,57,0.00,OVC,OVC,0.00,WeatherDisplay:10.37,2013-09-27 02:52:00,
2013-09-26 21:57:00,73.2,57.1,29.88,SSE,155,4.6,4.6,57,0.00,OVC,OVC,0.00,WeatherDisplay:10.37,2013-09-27 02:57:00,
2013-09-26 22:02:00,73.1,57.4,29.88,SSE,155,2.3,2.3,58,0.00,OVC,OVC,0.00,WeatherDisplay:10.37,2013-09-27 03:02:00,
2013-09-26 22:07:00,73.0,57.3,29.88,SSE,168,5.8,5.8,58,0.00,OVC,OVC,0.00,WeatherDisplay:10.37,2013-09-27 03:07:00,
2013-09-26 22:12:00,72.9,57.3,29.88,SSE,150,3.5,3.5,58,0.00,OVC,OVC,0.00,WeatherDisplay:10.37,2013-09-27 03:12:00,
2013-09-26 22:17:00,72.7,57.1,29.88,SSE,159,5.0,5.0,58,0.00,OVC,OVC,0.00,WeatherDisplay:10.37,2013-09-27 03:17:00,
2013-09-26 22:22:00,72.6,57.4,29.88,South,172,5.8,5.8,59,0.00,OVC,OVC,0.00,WeatherDisplay:10.37,2013-09-27 03:22:00,
2013-09-26 22:27:00,72.4,57.3,29.88,SSE,162,4.0,4.0,59,0.00,OVC,OVC,0.00,WeatherDisplay:10.37,2013-09-27 03:27:00,
2013-09-26 22:32:00,72.3,57.2,29.89,SSE,161,5.8,5.8,59,0.00,OVC,OVC,0.00,WeatherDisplay:10.37,2013-09-27 03:32:00,
2013-09-26 22:37:00,72.2,57.5,29.89,SSE,157,4.0,4.0,60,0.00,OVC,OVC,0.00,WeatherDisplay:10.37,2013-09-27 03:37:00,
2013-09-26 22:42:00,72.2,57.5,29.89,SSE,163,6.9,6.9,60,0.00,OVC,OVC,0.00,WeatherDisplay:10.37,2013-09-27 03:42:00,
2013-09-26 22:47:00,72.1,57.4,29.89,SSE,148,6.9,6.9,60,0.00,OVC,OVC,0.00,WeatherDisplay:10.37,2013-09-27 03:47:00,
2013-09-26 22:52:00,72.1,57.4,29.88,SSE,156,3.5,3.5,60,0.00,OVC,OVC,0.00,WeatherDisplay:10.37,2013-09-27 03:52:00,
2013-09-26 22:57:00,72.0,57.4,29.89,South,171,3.5,3.5,60,0.00,OVC,OVC,0.00,WeatherDisplay:10.37,2013-09-27 03:57:00,
2013-09-26 23:01:00,71.9,57.7,29.89,SSE,159,4.6,4.6,61,0.00,OVC,OVC,0.00,WeatherDisplay:10.37,2013-09-27 04:01:00,
2013-09-26 23:06:00,71.9,57.7,29.89,SSE,163,5.8,5.8,61,0.00,OVC,OVC,0.00,WeatherDisplay:10.37,2013-09-27 04:06:00,
2013-09-26 23:11:00,71.8,57.6,29.89,SSE,158,4.6,4.6,61,0.00,OVC,OVC,0.00,WeatherDisplay:10.37,2013-09-27 04:11:00,
2013-09-26 23:16:00,71.8,57.6,29.89,SSE,159,3.5,3.5,61,0.00,OVC,OVC,0.00,WeatherDisplay:10.37,2013-09-27 04:16:00,
2013-09-26 23:21:00,71.8,58.1,29.89,South,171,3.5,3.5,62,0.00,OVC,OVC,0.00,WeatherDisplay:10.37,2013-09-27 04:21:00,
2013-09-26 23:26:00,71.7,58.0,29.89,SSE,165,4.0,4.0,62,0.00,OVC,OVC,0.00,WeatherDisplay:10.37,2013-09-27 04:26:00,
2013-09-26 23:31:00,71.7,58.0,29.89,South,173,2.3,2.3,62,0.00,OVC,OVC,0.00,WeatherDisplay:10.37,2013-09-27 04:31:00,
2013-09-26 23:36:00,71.7,58.0,29.90,SSE,163,3.5,3.5,62,0.00,OVC,OVC,0.00,WeatherDisplay:10.37,2013-09-27 04:36:00,
2013-09-26 23:42:00,71.7,58.0,29.90,SSE,163,3.0,3.0,62,0.00,OVC,OVC,0.00,WeatherDisplay:10.37,2013-09-27 04:42:00,
2013-09-26 23:47:00,71.7,58.0,29.90,SSE,167,5.8,5.8,62,0.00,OVC,OVC,0.00,WeatherDisplay:10.37,2013-09-27 04:47:00,
2013-09-26 23:52:00,71.7,58.4,29.90,SSE,159,4.0,4.0,63,0.00,OVC,OVC,0.00,WeatherDisplay:10.37,2013-09-27 04:52:00,
2013-09-26 23:57:00,71.7,58.4,29.90,SSE,157,5.8,5.8,63,0.00,OVC,OVC,0.00,WeatherDisplay:10.37,2013-09-27 04:57:00,